Санта-Фе

США     35°41′30″N   105°56′44″W
темп.,
°C
ветер,
м/с
пор.,
м/с
влажн.,
%
обл.,
%
осадки,
мм/ч
давл.,
гПа
погр.,
м
16 октября, сб
сб1600:00+5в22270 0.0 102710
03:00+3в11340 0.0 102710
06:00+3св22360 0.0 102812
09:00+6ссз12270 0.0 1029206
12:00+12з21200 0.0 1026574
15:00+16юз33140 0.0 1022967
18:00+13ююз23210 0.0 102230
21:00+9юв22260 0.0 102414
17 октября, вс
вс1700:00+8вюв22290 0.0 102513
03:00+6вюв22320 0.0 102511
06:00+6всв22361 0.0 102412
09:00+10с11295 0.0 1023162
12:00+15зюз23275 0.0 1020741
15:00+17юз45260 0.0 10151135
18:00+14ююз3531100 0.0 1015104
21:00+12юв333612 0.0 101628
18 октября, пн
пн1800:00+11юв334191 0.0 101635
03:00+9юв22570 0.0 101519
06:00+8юв22640 0.0 101412
09:00+12ю23500 0.0 1014477
12:00+16юз67370 0.0 10121574
15:00+18зюз79250 0.0 10091951
18:00+15ююз35220 0.0 100880
21:00+12ююв22260 0.0 101012
19 октября, вт
вт1900:00+9ю33310 0.0 101322
03:00+7ююз23370 0.0 101334
06:00+6ююз34450 0.0 101444
09:00+9зюз47360 0.0 1015600
12:00+15з711220 0.0 10131989
15:00+16зюз1112210 0.0 10112077
18:00+13з69250 0.0 1014387
21:00+8всв47310 0.0 1017130
20 октября, ср
ср2000:00+7ссв34325 0.0 101937
03:00+5св33352 0.0 102022
06:00+4св33350 0.0 102214
09:00+8с22270 0.0 1023201
12:00+13з22190 0.0 1021756
15:00+16юз33137 0.0 10181158
18:00+13ююз332237 0.0 101931
21:00+9в33315 0.0 102118